Regional Weather Roundup
Issued by NWS Spokane, WA

Home | Current Version | Previous Version | Text Only | Print | Product List | Glossary On
Versions: 1 2 3 4 5 6 7 8 9 10 11 12 13 14 15 16 17 18 19 20 21 22 23 24 25 26 27 28 29 30 31 32 33 34 35 36 37 38 39 40 41 42 43 44 45 46 47 48 49 50
000
NZUS01 KOTX 222300
RWROTX
EASTERN WASHINGTON/NORTHERN IDAHO ROUNDUP
NATIONAL WEATHER SERVICE, SPOKANE WA
300 PM PST MON DEC 22 2014

Note: "fair" indicated few or no clouds below 12,000 feet with no
significant weather and/or obstructions to visibility.

...NORTHEAST WASHINGTON AND NORTHERN IDAHO PANHANDLE...

CITY           SKY/WX    TMP DP  RH WIND       PRES   REMARKS
SPOKANE INTL   PTCLDY    44  28  53 W9        30.22R
SPOKANE DOWNTO CLEAR     46  29  51 SW9       30.23R
COEUR D ALENE  CLEAR     45  30  57 W9        30.20R
DEER PARK      CLEAR     45  23  42 NW13G22   30.21R

...SOUTHEAST WASHINGTON AND SOUTHERN IDAHO PANHANDLE...

CITY           SKY/WX    TMP DP  RH WIND       PRES   REMARKS
WALLA WALLA    PTCLDY    49  35  58 SW7       30.30R
PULLMAN/MOSCOW CLEAR     41  31  67 W9        30.25R
LOWELL           N/A     42  39  89 CALM      30.27R

...COLUMBIA BASIN...

CITY           SKY/WX    TMP DP  RH WIND       PRES   REMARKS
EPHRATA        PTCLDY    48  29  47 NW8       30.27R
MOSES LAKE     PTCLDY    47  31  53 NW8       30.29R
TRI CITIES     PTCLDY    54  33  45 NW8       30.31R
HERMISTON      CLEAR     53  35  50 SW5       30.31R
PENDLETON      PTCLDY    48  37  65 W13       30.30R

...EAST SLOPES CASCADES...

CITY           SKY/WX    TMP DP  RH WIND       PRES   REMARKS
THE DALLES     MOSUNNY   53  38  56 NW10      30.32R
YAKIMA         CLEAR     56  29  35 NW8       30.29S
ELLENSBURG     PTCLDY    48  31  51 NW22G32   30.28R
WENATCHEE      PTCLDY    50  26  39 NW20      30.27R
OMAK           CLEAR     45  31  58 CALM      30.27R

...SOUTHERN BRITISH COLUMBIA...

CITY           SKY/WX    TMP DP  RH WIND       PRES   REMARKS

...WESTERN MONTANA...

CITY           SKY/WX    TMP DP  RH WIND       PRES   REMARKS
MISSOULA       CLOUDY    39  25  57 NW10      30.13R

...NEIGHBORING CITIES...

CITY           SKY/WX    TMP DP  RH WIND       PRES   REMARKS
SEATTLE        MOCLDY    49  41  74 SW3       30.38R



USA.gov is the U.S. government's official web portal to all federal, state and local government web resources and services.